Wind_Speed
17 17 16 16 16 16 15 13 13 12 11 12 12 12 12 11 11 10 9 9 9 9 10 11 12 11 7 5 5 6 6 4 5 8 13 13 12 13 11 16 19 24 27 20 18 17 15 13 13 13 11 8 6 4 4 4 3 2 3 2 2 4 5 6 7 5 1 5 10 9 7 7 8 7 6 6 8 10 9 7 6 5 6 11 19 26 28 26
16 17 16 16 17 17 16 14 13 12 11 12 12 12 13 12 12 11 10 9 9 9 9 10 10 10 7 4 5 6 6 5 8 13 18 15 11 13 14 19 22 27 27 21 21 20 16 14 15 14 10 6 5 5 4 4 4 3 3 1 4 5 6 6 8 5 2 5 9 9 7 7 8 8 7 8 10 11 10 9 8 9 11 15 22 27 27 26
17 17 16 17 17 17 16 15 14 13 12 12 12 12 13 13 13 12 10 8 8 9 9 9 8 8 6 5 6 6 6 8 10 10 9 8 12 14 18 23 23 28 26 21 21 19 15 15 17 14 9 6 5 6 5 4 4 3 3 0 6 4 5 7 8 6 5 5 7 9 8 7 7 7 7 8 11 11 9 10 10 12 14 18 22 26 27 26
17 17 17 17 17 17 17 16 15 14 14 13 13 13 13 14 13 12 11 9 8 8 9 9 7 7 5 6 7 6 6 9 4 2 2 3 10 17 22 26 25 27 23 18 18 15 13 15 17 13 9 7 6 7 6 5 3 2 3 1 6 2 3 6 7 6 5 3 6 9 8 8 7 7 7 8 10 8 8 10 12 15 18 20 22 25 27 25
17 17 17 17 18 17 17 17 16 15 15 14 14 14 15 14 13 12 11 9 8 8 9 9 7 6 5 6 6 4 6 6 3 5 4 3 12 21 25 27 26 25 19 16 17 14 13 15 14 11 8 6 7 7 7 8 5 2 3 1 2 1 3 5 6 5 4 2 6 9 9 8 8 6 7 8 5 2 6 10 12 17 19 21 23 24 25 24
17 17 17 17 18 17 17 17 16 16 16 16 15 15 16 15 14 13 11 9 8 8 8 8 6 5 4 6 5 3 6 2 4 4 5 1 17 24 26 28 26 23 18 18 17 14 14 13 12 10 8 7 8 8 6 8 6 4 4 1 1 2 3 4 4 3 2 2 6 8 7 8 8 6 7 7 3 3 3 10 13 17 20 23 24 22 22 22
17 17 17 17 17 17 17 17 17 17 17 16 17 17 17 16 15 12 11 8 8 8 8 8 5 4 4 4 3 5 8 2 5 5 4 7 21 24 26 28 24 21 19 20 18 15 13 13 13 9 8 7 8 8 4 7 8 6 3 1 2 3 4 5 4 1 0 3 5 6 7 9 9 6 6 6 5 4 5 10 14 18 21 23 21 20 20 21
17 17 17 17 18 18 18 18 18 18 18 17 18 18 18 17 15 12 10 8 7 8 9 7 5 3 2 3 4 6 6 3 5 3 1 14 22 23 26 24 21 20 21 21 18 16 13 14 13 9 9 6 6 9 5 6 9 8 6 2 3 4 4 5 4 2 2 3 6 7 7 9 9 5 6 7 6 7 8 12 14 17 20 20 19 19 19 19
17 17 17 17 18 18 19 19 19 19 19 19 19 19 19 17 16 13 9 8 8 9 8 6 5 3 1 4 7 5 1 5 3 2 8 18 20 22 24 20 20 20 20 20 18 17 13 12 13 7 6 5 5 9 8 6 5 6 7 4 5 6 5 6 4 3 4 4 6 9 7 8 8 5 7 8 8 9 10 13 15 16 18 18 17 18 18 18
17 17 17 18 18 18 19 19 19 20 20 20 21 20 19 18 16 13 9 8 9 9 8 6 5 3 3 6 8 4 4 6 4 9 14 19 20 21 19 17 20 20 19 18 17 17 11 10 11 4 4 4 6 7 9 6 0 1 6 6 7 6 5 4 1 5 6 6 7 8 7 8 9 6 5 8 9 10 13 14 14 15 16 17 16 16 17 18
17 18 18 18 19 19 19 20 20 20 20 21 21 20 19 17 14 12 8 9 9 8 8 6 5 5 5 7 8 1 6 3 8 12 15 18 20 20 15 16 19 19 17 16 16 15 11 8 8 5 3 3 6 6 8 5 2 2 6 6 6 3 2 2 6 8 6 7 7 6 7 8 9 6 5 10 11 11 13 14 14 14 14 15 16 15 14 16
18 18 18 19 19 20 19 20 20 20 21 21 21 20 17 14 12 10 7 9 9 8 7 6 6 5 6 7 5 2 6 3 10 13 15 16 16 14 13 16 16 16 16 14 14 13 9 7 9 8 1 1 6 5 5 5 4 5 7 6 5 5 3 3 7 8 6 7 7 7 6 7 9 7 8 12 11 12 13 14 14 13 13 14 15 14 13 15
18 18 18 19 20 21 20 20 20 20 20 20 20 18 15 13 11 8 5 8 9 8 8 7 8 5 7 5 1 2 3 4 10 14 15 14 12 11 11 13 10 11 13 13 13 11 8 8 11 9 2 4 5 2 2 6 6 7 7 6 5 6 5 5 6 7 6 7 9 7 3 5 10 9 10 12 12 13 13 13 13 12 11 12 13 13 12 15
19 20 20 21 21 21 20 19 19 19 19 19 17 14 12 11 8 5 4 9 9 9 8 8 8 5 7 1 5 2 3 7 11 14 14 13 12 11 11 9 7 7 7 9 10 9 6 7 10 7 4 6 2 1 4 6 6 7 6 5 6 5 6 7 6 8 7 6 9 8 3 4 9 10 11 12 13 14 12 12 12 11 11 11 12 13 12 14
21 22 21 22 22 22 20 19 18 17 18 17 14 10 10 9 4 1 5 10 10 10 9 7 7 6 6 2 4 3 7 9 12 14 13 14 13 11 11 10 8 7 5 5 7 8 6 7 8 7 5 4 3 5 7 5 6 7 5 7 7 4 5 7 6 8 5 6 9 7 3 4 8 10 11 11 12 13 12 12 12 11 13 12 12 12 12 13
23 23 23 23 22 22 20 19 17 16 16 14 9 6 9 9 8 8 9 11 11 11 8 5 7 7 6 2 6 5 8 8 11 13 13 12 11 11 12 11 9 8 6 5 6 7 6 7 7 6 5 5 6 8 6 5 7 7 7 8 8 6 6 7 7 6 4 5 9 8 3 4 7 9 11 11 12 13 11 12 13 11 12 13 12 12 12 12
24 24 24 23 21 22 19 18 16 14 14 10 4 5 10 11 12 12 12 12 10 9 5 2 3 6 4 4 7 7 8 8 9 13 13 9 8 12 14 11 10 10 8 6 6 8 8 7 5 5 6 6 7 8 7 8 8 7 8 7 5 5 5 6 7 7 6 5 7 8 4 4 8 8 10 11 12 12 11 11 13 11 11 12 11 12 12 12
26 26 25 23 21 21 18 16 15 14 13 6 2 6 10 11 12 9 8 8 6 5 4 3 3 5 3 7 6 6 8 8 9 13 12 9 9 12 13 10 10 11 9 7 8 9 8 6 6 6 7 7 7 8 8 8 9 10 10 8 6 5 4 4 6 7 8 6 5 7 5 2 7 8 9 10 11 12 11 11 11 11 11 11 11 12 12 12
27 26 25 22 21 19 16 15 13 14 11 1 6 7 8 8 6 4 5 6 5 4 2 3 6 3 1 8 5 6 8 8 10 12 14 12 11 12 11 11 12 12 10 8 9 10 8 6 7 8 9 9 9 11 9 4 7 12 12 10 7 7 5 5 6 6 8 7 5 6 5 4 7 9 9 10 11 11 11 10 10 11 11 11 11 11 11 13
28 26 24 23 20 18 16 14 12 12 8 4 7 3 3 3 3 5 7 7 8 7 6 3 6 5 0 5 5 5 6 8 8 12 15 15 14 12 10 11 11 10 9 9 10 10 9 8 9 9 10 12 13 13 7 2 4 7 10 9 6 6 5 6 6 5 6 6 5 6 5 4 5 9 10 10 11 11 12 12 11 11 12 11 12 12 12 13
28 26 24 23 21 18 14 12 11 10 5 6 8 5 2 2 3 0 1 6 8 8 8 6 6 7 4 1 1 1 4 8 9 12 16 16 15 12 9 11 11 8 9 10 10 9 9 9 10 11 11 12 13 11 5 2 4 4 7 8 7 6 5 6 5 5 4 5 4 4 5 5 5 7 10 11 13 13 13 14 13 14 13 11 12 12 13 12
28 25 24 22 20 16 12 11 8 5 0 6 9 7 2 5 4 3 3 5 4 4 7 6 6 6 6 5 4 3 4 8 11 12 14 15 14 10 8 10 10 8 9 10 9 8 9 10 11 12 10 10 11 9 7 7 6 6 6 7 7 6 5 6 4 5 4 4 4 4 5 5 6 6 10 12 13 12 13 14 13 14 14 12 13 12 12 13
27 25 23 21 18 15 11 7 3 1 3 5 8 4 2 4 4 2 4 6 2 4 5 6 7 6 6 5 4 6 8 9 12 12 14 15 13 9 9 11 10 9 11 11 9 8 9 10 11 11 9 11 11 9 10 8 6 7 7 7 7 7 6 4 6 6 4 3 2 2 4 4 5 6 9 12 12 10 12 13 12 13 14 14 14 13 13 14
25 23 21 19 16 15 9 1 3 3 2 4 4 2 3 3 4 4 5 5 2 3 3 3 4 5 4 2 5 8 8 7 8 12 16 15 10 7 9 11 9 9 10 13 12 10 8 7 9 12 11 12 11 10 11 8 7 9 8 8 7 8 7 1 5 6 5 5 4 3 5 5 6 7 7 9 11 10 10 12 11 12 12 12 13 13 14 14
25 23 20 17 15 12 4 5 4 2 3 5 2 3 3 5 4 4 5 5 3 4 3 3 3 3 1 3 5 6 6 5 3 10 16 14 10 8 7 7 7 8 11 14 12 10 7 5 8 12 13 13 11 10 11 10 8 9 10 10 5 5 6 2 4 4 5 7 7 5 7 5 7 6 3 4 8 8 8 9 10 10 10 10 11 13 14 14
24 21 17 14 12 8 2 4 3 0 5 5 2 3 4 6 4 4 4 5 4 4 4 5 3 3 3 5 6 4 7 6 4 7 13 8 7 7 5 6 5 6 11 12 8 6 5 7 10 12 13 14 12 9 12 11 8 7 9 11 7 4 6 5 5 5 6 4 5 5 7 4 8 5 4 3 4 6 6 6 8 8 8 10 10 11 12 13
23 20 17 12 9 7 2 1 2 2 5 3 3 3 5 5 3 4 5 5 4 2 3 3 1 3 3 3 6 5 6 9 7 6 7 3 5 6 6 7 6 4 8 8 6 5 6 9 12 12 13 13 10 9 11 11 10 4 7 9 11 8 8 8 7 7 5 1 2 7 7 5 5 6 4 3 4 6 6 4 6 7 9 10 11 11 12 12
22 19 16 10 6 6 3 1 1 2 2 4 2 5 6 3 4 4 6 3 4 1 1 4 1 1 2 3 5 3 5 10 8 5 5 4 5 6 8 8 9 8 9 8 6 7 9 10 11 12 12 10 9 9 9 11 12 3 6 6 9 8 10 9 8 7 4 2 5 8 6 6 4 6 5 5 7 6 4 2 3 6 9 11 12 12 13 12
20 17 14 8 4 4 4 2 3 1 3 3 4 5 4 4 5 5 5 1 3 1 1 3 3 4 6 7 5 4 5 4 2 5 6 6 4 5 5 4 7 10 11 11 6 7 9 9 8 11 10 8 10 10 8 11 11 2 3 6 6 6 8 8 8 7 4 4 8 9 9 8 4 6 4 4 6 4 4 2 1 2 5 9 11 12 13 14
17 13 10 7 3 2 1 1 2 1 1 3 4 5 4 5 5 6 4 1 1 3 2 1 3 5 9 10 5 5 6 5 6 7 6 6 5 5 1 1 5 6 10 12 7 4 7 5 5 7 4 2 6 7 7 11 10 3 4 7 6 6 6 7 7 6 5 6 10 10 10 10 5 5 4 4 5 5 4 3 3 5 6 6 9 12 13 13
12 10 9 7 4 1 3 1 2 2 4 4 5 5 6 5 5 5 3 2 1 3 4 3 5 7 11 11 7 7 7 7 6 7 7 6 7 7 4 4 6 6 7 9 6 6 8 8 6 2 3 2 4 5 5 9 10 6 6 7 7 6 5 6 6 6 7 7 11 12 9 10 8 3 6 5 6 6 5 5 6 6 7 7 7 10 12 12
7 9 11 10 7 3 4 3 3 6 5 4 5 5 5 5 4 1 3 2 1 2 1 3 6 9 10 8 7 7 7 6 4 5 7 6 5 4 1 1 3 5 7 8 8 8 8 7 7 6 2 2 7 8 6 8 10 8 8 8 8 7 6 8 8 7 8 6 8 11 9 7 3 5 6 6 7 7 6 6 7 7 7 7 7 8 11 12
5 9 11 11 10 7 6 7 7 7 5 5 6 5 5 4 2 3 3 1 1 3 2 2 6 10 10 9 8 8 8 6 4 5 6 5 6 5 5 6 4 4 5 8 9 8 6 6 8 8 5 2 7 9 6 7 10 10 9 9 8 7 8 9 9 8 9 7 6 8 7 6 5 6 5 7 8 7 7 7 7 7 7 6 6 6 10 12
2 8 12 12 12 11 8 5 4 4 4 6 7 5 5 1 4 1 2 5 4 3 2 3 7 10 10 8 7 5 6 6 4 5 6 4 5 5 5 7 7 6 4 6 8 7 7 7 6 5 3 1 5 5 3 3 10 11 9 9 8 7 7 8 8 8 9 9 7 8 7 6 6 5 5 7 8 8 8 8 8 8 7 7 6 2 7 11
2 4 10 10 10 13 11 4 2 3 4 6 5 2 1 3 4 2 4 5 3 3 5 5 7 10 9 7 6 3 2 4 6 5 6 5 5 5 3 5 8 7 4 4 5 5 5 5 5 3 3 1 1 2 5 5 8 10 9 9 8 6 6 5 6 8 9 8 8 8 4 2 6 7 6 6 9 10 9 10 10 10 10 8 8 7 2 4
3 3 7 7 7 12 11 4 1 2 5 6 3 3 4 4 4 5 5 5 4 2 4 8 7 7 8 6 7 5 2 4 6 5 7 7 7 8 5 4 7 7 5 3 3 3 3 5 6 4 3 2 2 1 2 4 4 6 9 9 4 1 4 4 4 7 9 8 8 8 6 6 7 7 7 6 9 11 11 12 12 12 12 10 9 9 8 6
2 3 4 8 11 13 11 5 1 3 6 5 2 5 3 4 5 5 5 6 5 4 4 7 3 2 7 8 6 8 8 6 4 3 4 4 5 7 6 4 5 7 7 4 1 0 1 5 6 4 5 5 2 0 2 2 4 3 7 7 3 1 4 4 3 7 9 8 7 9 10 9 7 4 6 7 9 12 12 13 13 13 13 12 11 10 9 9
2 4 2 11 15 13 9 6 3 6 5 0 6 5 3 5 6 6 5 6 4 5 6 4 1 2 5 8 7 7 7 5 4 4 4 2 2 5 6 3 4 7 7 6 2 0 2 3 7 4 4 6 3 3 5 4 2 4 2 3 3 4 7 6 5 7 10 9 7 9 11 6 2 3 4 6 9 11 11 12 13 14 14 12 11 11 11 10
3 5 1 11 14 10 7 6 6 7 2 3 6 4 3 5 7 7 6 4 3 5 4 2 2 0 2 5 7 6 2 3 5 4 2 1 2 5 7 4 4 7 8 7 3 1 3 2 5 5 4 6 4 2 3 4 3 3 3 3 4 4 5 6 7 6 8 9 8 9 9 5 2 2 4 6 8 8 9 10 11 13 14 12 11 11 11 10
4 3 3 11 14 8 6 7 5 1 2 4 5 4 3 5 7 8 7 5 3 4 3 3 2 3 5 5 6 5 4 5 5 3 3 3 3 5 7 6 6 8 7 6 3 1 3 4 3 6 6 6 3 2 3 2 0 4 6 6 6 4 3 3 6 5 5 7 8 9 9 6 4 2 4 5 6 6 7 8 9 11 12 12 13 12 11 10
4 2 4 11 14 8 7 5 1 3 4 5 5 5 4 4 5 7 8 7 5 5 5 6 5 5 6 5 5 5 5 6 5 4 5 3 2 4 6 8 7 8 7 3 1 3 2 4 3 6 6 4 4 5 4 5 5 3 1 1 2 4 4 5 8 6 5 6 5 8 8 7 4 1 3 5 6 6 7 7 8 10 12 12 12 12 12 12
3 1 4 12 13 9 6 1 5 3 4 5 4 5 4 3 5 6 6 6 6 6 6 7 8 6 5 5 6 6 5 5 5 4 5 5 6 6 7 8 7 6 5 1 2 4 3 3 2 4 4 6 7 4 3 3 4 3 3 3 2 3 4 6 7 6 6 5 4 4 6 7 4 2 4 6 7 8 8 8 8 9 11 12 13 13 13 13
3 3 5 10 10 8 4 4 5 3 5 5 3 5 5 4 6 7 6 6 6 5 6 6 7 6 6 5 5 6 5 5 5 5 6 7 7 7 7 8 7 5 4 1 2 3 3 2 2 5 5 5 6 3 1 1 3 1 3 4 3 2 3 4 4 3 6 6 4 5 6 6 4 3 5 7 8 9 8 9 9 9 10 11 13 13 13 13
4 3 4 10 8 6 3 4 4 4 6 5 5 6 6 7 9 9 8 9 6 5 6 7 7 6 6 5 5 5 3 2 4 5 4 5 5 6 7 9 8 5 5 4 3 3 2 1 1 4 6 6 6 5 4 3 2 1 4 5 4 4 3 4 3 4 5 2 3 7 5 7 6 5 6 8 9 9 10 10 10 10 10 10 12 12 13 14
1 1 3 9 9 3 2 4 3 5 6 6 7 6 6 6 8 8 10 10 8 6 6 6 6 6 6 5 6 5 3 3 4 3 4 5 5 5 7 8 8 7 7 6 6 5 2 2 2 3 5 5 5 3 2 3 3 3 4 4 5 6 4 3 2 5 6 1 3 3 5 10 10 9 8 8 9 9 10 10 11 11 11 11 11 11 12 13
2 1 2 4 6 6 5 3 2 3 4 4 5 5 5 7 6 7 8 8 9 8 7 6 4 4 5 5 7 7 7 6 5 5 5 5 5 4 6 6 8 8 7 6 6 4 0 3 4 4 3 2 3 4 4 2 3 3 3 5 5 6 5 4 4 4 3 3 3 4 9 14 14 11 9 8 8 9 9 10 10 10 11 11 11 11 12 13
1 2 2 1 2 3 4 3 3 2 2 1 2 3 4 5 5 5 6 5 6 5 6 6 4 3 5 5 6 7 8 8 8 7 6 4 4 4 4 5 8 7 4 3 4 3 1 2 3 5 6 6 6 6 5 3 2 3 3 3 4 5 5 4 1 2 2 2 4 6 9 14 14 11 9 8 8 8 8 9 10 9 10 10 10 12 14 14
1 1 2 2 1 2 3 4 4 4 4 4 2 1 3 5 5 5 6 5 5 3 2 5 6 6 6 4 3 6 6 7 7 5 4 4 3 3 2 4 7 6 3 3 4 3 2 2 2 3 5 6 6 5 4 3 3 2 1 2 3 4 4 4 5 5 5 1 6 9 9 11 12 11 9 8 7 7 8 8 8 9 9 10 11 13 15 15
2 3 2 1 1 4 4 3 3 5 6 5 3 2 4 6 6 5 4 4 6 6 4 5 7 6 5 4 3 5 4 3 5 4 3 3 2 0 1 2 4 5 4 3 4 3 2 2 3 3 5 5 4 3 2 2 1 1 1 2 1 2 3 3 4 5 5 7 10 12 11 11 10 9 9 7 5 6 7 7 8 9 10 11 12 13 14 15
2 2 2 2 3 4 4 2 1 4 4 2 2 3 4 6 7 6 5 5 6 7 6 8 9 7 7 7 6 7 6 5 5 5 2 2 1 0 1 1 2 4 3 3 3 2 3 1 3 3 4 4 3 2 1 1 1 1 1 2 2 3 3 3 4 5 5 7 10 11 10 9 7 6 8 6 4 4 5 6 8 8 10 11 11 12 13 14
3 3 3 1 3 2 1 2 1 2 4 2 2 4 4 6 8 8 7 7 7 8 7 9 10 9 9 10 9 9 8 7 7 6 3 2 2 2 2 2 2 2 2 2 2 2 1 2 4 4 4 4 4 2 1 1 2 4 4 4 5 5 4 4 4 3 3 6 9 9 7 7 6 6 7 6 5 5 4 6 7 8 9 10 11 12 12 13
2 1 3 2 1 0 0 2 1 1 2 3 3 3 4 6 6 4 5 6 6 8 7 6 7 7 7 10 10 8 6 6 6 6 3 3 4 3 3 4 3 3 3 2 1 1 0 2 4 4 4 4 5 2 1 2 5 5 4 5 5 4 3 4 4 2 1 3 5 4 4 6 7 7 7 5 4 4 4 5 6 7 8 9 10 11 11 12
Wind_Direction
346 344 344 342 340 340 341 345 344 343 344 342 339 338 336 335 334 329 325 319 311 310 316 323 325 332 344 350 334 324 333 300 265 233 231 252 231 223 213 188 182 168 165 165 162 158 161 170 166 171 176 178 199 186 179 216 243 253 262 261 68 52 49 24 17 34 45 134 138 148 156 156 146 149 144 147 149 133 131 125 122 120 108 120 131 138 145 149
345 344 344 341 339 338 338 341 341 343 346 344 339 337 336 332 331 327 322 317 306 303 308 317 321 330 346 355 339 343 336 272 253 251 248 259 240 219 196 184 183 172 168 171 172 169 168 167 166 175 182 179 170 166 187 197 213 244 274 288 73 47 54 35 19 29 25 109 137 153 160 170 152 149 165 164 149 143 138 133 134 120 114 123 134 142 148 152
346 344 342 340 338 336 335 337 338 341 344 342 338 337 334 330 330 324 319 313 301 296 297 309 318 325 341 344 336 349 329 271 257 253 256 263 230 210 183 181 183 173 171 176 177 175 173 166 166 177 189 190 168 171 190 189 201 218 253 44 81 46 52 55 29 22 25 77 144 157 163 176 154 155 178 171 157 157 147 145 146 134 138 141 143 148 151 155
345 342 340 339 336 336 335 334 334 337 338 337 338 335 332 330 328 323 317 308 295 285 286 300 309 316 331 333 335 352 306 267 257 139 32 329 197 190 178 178 181 174 175 180 178 179 174 165 170 184 197 196 179 182 191 189 196 181 240 25 78 44 26 49 32 30 35 68 155 155 166 174 161 170 184 175 166 165 160 158 152 145 148 149 149 153 155 158
344 341 340 338 335 337 337 334 334 335 334 334 336 334 330 327 325 322 314 305 291 275 279 289 298 313 322 327 336 344 280 251 77 74 346 322 173 177 177 176 177 173 175 178 175 177 172 169 179 190 202 198 179 192 200 193 214 236 234 350 59 315 356 23 20 42 48 89 155 160 173 163 158 178 195 186 159 151 169 155 147 147 152 153 154 156 158 161
342 341 340 338 337 338 338 336 336 335 334 334 334 332 328 324 323 320 312 304 284 267 271 280 291 308 311 326 337 286 261 271 47 4 335 223 170 172 176 174 172 171 173 174 172 177 176 177 185 190 203 203 187 197 201 194 219 244 213 205 275 310 340 346 359 40 63 141 161 170 165 148 164 176 197 193 99 26 124 135 143 147 152 154 155 158 161 164
340 340 340 338 337 339 339 338 337 336 335 335 333 330 326 323 321 316 310 298 274 262 261 272 280 287 310 322 317 243 249 313 31 342 344 164 166 169 175 172 169 172 177 179 178 184 182 184 192 192 200 199 194 194 183 195 215 245 249 231 283 327 323 319 341 348 157 151 160 172 159 161 181 165 181 188 104 80 116 132 144 144 151 155 155 160 161 164
339 339 338 337 337 340 340 337 336 334 335 336 333 329 325 321 319 313 303 285 262 253 251 265 262 258 303 281 273 239 231 9 34 343 103 156 160 166 171 168 173 177 180 184 183 185 183 190 195 195 203 197 191 189 175 198 208 228 251 274 293 306 313 314 320 271 179 138 155 172 172 175 182 147 168 179 125 131 137 138 143 142 152 157 158 161 161 164
339 338 337 336 337 341 340 337 335 334 336 337 333 329 325 320 316 308 293 269 250 247 247 250 238 238 244 246 270 247 169 34 45 146 141 149 151 159 163 168 179 178 180 185 185 186 185 194 195 199 225 198 177 189 190 213 202 208 246 286 298 302 322 323 310 213 163 142 164 173 172 167 165 151 166 164 135 141 142 141 146 148 156 160 161 163 164 166
339 338 336 335 336 340 340 338 336 336 337 336 333 328 324 321 314 306 283 253 243 240 238 236 217 202 219 243 260 232 71 48 129 138 143 147 145 154 163 174 179 179 181 182 186 189 189 200 194 200 270 215 187 195 195 221 254 176 260 285 283 296 336 342 109 161 152 146 175 175 160 154 164 186 173 153 147 147 147 148 152 155 158 162 164 165 168 169
338 336 336 335 336 339 339 338 338 338 338 336 333 328 325 322 314 305 275 242 237 230 226 221 190 188 225 252 258 234 58 84 145 140 151 150 150 159 168 174 177 182 180 179 188 190 195 202 187 194 254 195 182 193 198 222 319 271 271 280 258 257 31 54 121 147 151 148 177 175 152 156 174 203 167 149 158 158 154 151 156 162 159 164 166 165 170 171
336 336 335 334 335 339 338 337 339 339 338 336 334 330 326 322 313 303 272 231 222 215 212 199 172 180 233 253 256 49 53 120 150 146 154 153 155 160 164 170 179 187 181 182 188 188 200 197 193 207 227 151 180 181 190 207 255 261 264 272 233 193 134 98 126 150 156 150 172 171 160 175 188 190 150 146 158 161 159 154 159 166 161 165 168 167 171 173
337 336 334 334 335 337 337 336 338 338 337 338 336 331 327 323 309 295 260 211 200 193 192 181 161 181 245 253 133 105 68 129 153 150 152 154 153 151 158 167 177 189 187 191 185 181 202 198 206 217 241 240 200 116 141 195 237 252 240 254 237 194 151 113 136 160 153 148 165 161 160 199 190 176 146 149 163 163 162 160 165 167 165 167 168 169 173 174
340 339 338 337 335 334 336 335 337 336 336 340 337 332 335 331 314 290 226 191 181 177 174 162 161 200 250 237 80 144 145 130 156 156 156 158 148 147 158 165 172 177 185 194 180 174 191 194 213 226 237 255 251 98 213 200 217 234 216 225 240 208 143 121 151 172 155 151 171 162 145 177 168 162 151 155 168 167 165 167 170 168 166 170 170 173 174 175
344 344 344 341 334 333 335 334 335 335 336 342 338 340 358 359 7 84 167 168 164 160 153 153 176 222 252 182 98 125 138 142 169 168 164 161 151 152 161 168 171 166 171 178 170 171 179 187 209 220 205 233 263 216 215 200 199 219 216 207 220 207 135 128 158 186 167 155 186 188 165 133 137 149 152 159 172 173 170 169 173 172 169 171 175 178 176 176
344 344 346 343 334 332 334 333 334 333 337 343 337 5 40 46 66 103 128 140 143 140 143 160 190 236 274 141 120 143 155 155 169 171 173 171 163 153 153 158 158 163 168 160 169 173 180 195 207 226 206 198 221 212 206 203 197 207 218 214 208 193 165 145 154 185 174 157 184 200 206 104 112 142 149 160 174 175 174 171 172 176 173 172 176 180 178 176
344 343 344 341 334 333 335 333 333 330 336 342 338 59 75 80 91 103 113 124 130 136 172 240 202 238 276 109 138 171 167 147 153 168 175 182 174 151 150 155 154 160 156 148 171 173 181 200 199 218 223 209 208 205 207 206 197 195 206 214 206 199 189 157 153 166 174 188 186 197 229 74 99 137 151 164 174 173 178 176 172 177 179 174 177 182 179 178
344 343 340 338 335 336 336 334 332 328 333 338 152 101 94 100 102 104 115 126 134 160 218 256 219 237 202 158 167 149 140 136 147 165 168 169 164 154 156 157 152 158 156 153 171 178 182 192 196 199 203 207 202 202 209 204 199 195 196 205 194 198 209 155 147 156 172 203 199 194 221 125 120 137 151 166 175 177 180 181 176 177 182 180 181 184 179 180
344 342 340 338 338 338 338 336 328 325 333 1 141 107 104 116 120 158 179 169 190 216 240 176 196 272 127 156 143 102 120 132 141 158 163 161 157 156 157 153 154 163 167 167 173 184 186 184 201 204 197 198 197 205 213 229 224 201 193 210 202 191 187 123 116 146 174 198 200 199 213 185 154 146 156 167 174 185 182 181 184 180 184 184 186 186 179 184
344 342 340 337 339 339 338 334 325 324 329 151 151 145 166 188 204 192 191 208 234 263 301 236 216 270 256 137 117 108 134 148 158 159 161 163 158 154 151 153 162 172 180 175 168 180 190 194 200 203 202 195 196 207 211 321 265 201 185 202 205 193 160 117 114 136 180 206 193 202 218 202 167 154 163 169 175 187 187 186 189 187 188 186 188 187 181 187
344 342 339 337 338 338 337 332 323 319 315 165 179 232 267 312 299 29 186 230 229 249 271 260 250 268 269 307 7 155 167 175 174 158 160 167 165 159 154 162 171 180 191 177 155 167 193 210 205 203 207 192 192 204 198 199 222 203 192 189 197 208 152 116 120 127 181 224 181 191 226 208 190 168 166 176 184 189 191 190 190 190 190 187 189 190 185 186
345 342 340 338 338 338 337 327 316 309 98 162 200 238 357 27 349 350 318 267 211 215 251 245 254 266 260 264 261 263 237 177 156 152 162 174 182 179 168 181 187 176 180 175 160 170 195 219 207 197 202 186 182 193 198 207 208 208 209 198 203 200 148 125 136 141 182 227 173 177 233 204 186 183 174 185 194 194 195 194 191 188 189 189 187 189 190 186
345 343 341 340 341 340 330 320 316 139 133 182 218 232 40 22 341 291 264 279 222 175 218 226 235 232 218 223 199 213 216 170 154 158 167 182 195 192 175 188 196 173 172 182 185 183 195 217 200 180 182 180 176 185 198 205 212 214 206 208 202 178 182 174 145 148 168 238 219 188 247 218 182 189 187 192 198 199 200 198 193 187 191 193 185 186 191 186
346 344 343 342 344 340 331 22 119 134 175 230 230 76 27 335 320 269 254 281 252 161 186 222 240 229 206 164 171 206 205 165 160 159 170 189 183 170 186 193 195 180 179 193 199 201 205 205 177 169 180 188 183 184 196 202 208 212 212 222 206 173 204 220 116 152 177 216 234 238 243 223 191 197 191 189 197 200 200 199 196 190 193 195 186 188 191 187
348 345 343 343 346 350 4 124 121 137 186 201 168 62 347 328 309 257 267 270 194 144 159 175 214 219 151 142 182 218 191 145 125 151 171 195 178 168 192 193 202 193 181 190 202 212 209 161 158 178 188 194 195 191 199 210 208 205 213 229 229 177 197 166 134 195 214 199 191 221 241 199 173 187 158 160 190 196 195 200 202 195 194 198 194 192 191 188
349 344 342 341 351 7 78 129 78 102 198 180 118 25 335 329 294 232 268 258 172 130 160 172 190 170 159 176 167 201 195 150 71 146 171 196 190 190 192 175 215 215 175 180 205 220 185 157 177 192 190 192 201 202 200 209 222 208 197 209 221 218 211 201 192 216 232 194 149 211 252 198 158 132 66 92 157 170 177 197 208 199 196 204 204 198 195 192
347 342 340 340 352 7 3 68 54 200 200 138 77 342 330 320 255 202 253 237 156 97 158 151 182 164 142 160 164 205 187 136 113 146 168 202 194 210 213 179 196 203 160 171 205 202 161 164 187 193 191 193 199 204 190 199 229 199 139 189 212 221 223 217 216 225 237 306 144 206 244 244 172 108 81 125 120 128 148 181 208 203 203 210 209 202 202 198
346 341 342 345 355 6 24 50 274 212 102 56 6 329 330 287 203 215 257 219 111 42 174 113 87 190 143 154 184 206 121 132 150 131 130 184 187 216 220 192 192 179 166 189 186 155 165 179 185 186 194 198 200 204 180 191 226 196 107 196 215 219 228 221 221 228 227 260 229 200 203 239 196 118 114 127 110 101 105 137 217 211 211 214 212 204 200 199
346 342 347 353 2 22 58 96 272 281 56 3 323 339 317 227 210 243 250 170 94 189 159 110 139 170 168 164 171 163 125 130 151 111 138 177 187 242 237 203 205 173 168 210 208 138 171 191 186 187 198 203 200 203 182 192 220 189 125 211 208 211 227 223 224 224 207 228 236 200 187 220 193 123 121 102 89 64 53 49 323 280 243 225 216 208 200 197
345 347 357 3 19 28 24 172 207 264 306 307 329 327 258 211 226 239 208 115 68 132 127 185 170 159 169 165 141 138 131 87 94 123 144 156 165 211 257 20 225 177 168 212 229 121 140 170 193 199 224 239 198 192 185 204 218 188 173 199 190 192 207 214 222 223 213 220 230 213 195 216 211 109 92 77 58 27 19 17 2 338 302 261 226 212 203 199
349 4 16 17 28 331 279 179 142 272 278 300 317 278 230 209 238 240 155 85 45 125 150 173 155 168 180 169 137 127 120 91 113 153 150 150 163 173 173 183 202 187 174 198 202 144 149 171 177 153 2 322 213 193 191 213 217 202 198 195 181 176 183 199 201 210 222 217 220 214 199 217 223 97 73 68 53 34 21 8 358 342 321 302 256 218 203 200
6 26 27 25 25 349 306 323 306 280 269 282 285 251 222 212 219 171 88 170 221 89 114 139 143 165 167 142 119 125 122 97 101 137 137 147 142 117 102 182 188 194 184 183 179 161 159 163 144 123 96 223 221 208 188 203 210 206 203 195 185 176 176 195 192 197 217 217 211 203 194 212 194 82 63 58 50 37 29 15 2 350 334 319 284 234 203 195
25 31 22 19 18 357 314 305 292 275 263 261 252 233 236 226 144 56 43 109 47 43 50 134 146 159 152 130 113 107 105 96 96 115 114 120 124 105 61 39 359 270 207 177 176 168 152 143 154 165 151 160 228 217 187 187 198 202 202 194 192 186 182 193 191 192 208 205 184 177 188 198 137 87 56 56 52 39 35 27 20 5 348 337 309 244 201 191
11 27 12 7 9 1 336 313 296 274 251 243 233 225 239 164 90 39 33 57 53 64 117 151 147 150 145 130 121 109 95 87 91 132 137 129 124 117 83 52 12 318 256 188 175 180 174 152 163 175 129 137 227 241 292 231 195 198 206 202 206 207 194 194 194 193 196 188 165 161 191 204 154 104 62 66 60 49 43 34 33 26 10 4 356 315 193 189
271 356 359 357 359 356 347 332 297 265 234 235 232 220 212 85 69 18 39 36 14 93 129 164 159 146 131 111 117 118 33 86 100 103 104 97 81 70 51 30 16 351 289 219 169 179 182 121 97 80 55 352 249 310 311 272 199 190 204 211 216 225 219 212 202 195 192 185 173 173 175 105 119 108 79 73 63 51 44 38 38 33 27 27 22 19 17 188
277 295 345 354 350 351 350 340 279 239 233 245 228 81 59 58 22 354 13 347 323 34 150 172 167 152 142 134 133 125 77 113 133 113 84 84 73 49 29 24 13 359 333 277 181 180 178 111 101 113 106 53 4 4 274 272 227 184 198 210 205 277 261 239 191 186 201 198 178 172 139 105 128 117 75 65 60 50 40 37 38 35 33 34 29 20 7 357
300 268 337 10 6 356 355 1 327 237 243 261 84 73 45 49 14 346 342 322 313 300 228 173 156 188 150 142 134 132 135 133 146 146 111 107 73 26 10 32 14 2 0 327 271 186 216 121 118 136 122 99 40 320 160 279 284 222 199 194 152 25 272 261 205 184 200 199 173 175 163 148 172 156 75 51 46 45 38 33 34 36 35 33 31 25 12 360
301 245 324 21 9 354 357 9 316 251 244 136 94 84 36 43 23 358 341 319 296 275 256 161 105 287 160 145 128 128 160 169 154 137 114 109 77 12 357 23 14 8 4 318 285 3 300 126 124 134 127 126 158 224 178 168 265 295 280 191 179 216 215 219 226 195 195 198 174 171 163 141 171 164 90 43 33 36 33 31 31 33 32 29 29 27 21 13
278 237 111 20 359 349 1 346 281 256 239 97 102 95 52 49 33 18 5 328 300 292 293 101 101 293 122 136 129 114 147 156 140 140 104 59 80 30 7 4 350 0 356 320 312 353 279 217 135 135 147 159 175 237 193 159 178 233 253 215 212 241 217 207 223 209 203 204 178 165 165 136 74 83 73 43 33 31 29 31 33 33 32 29 27 27 25 22
282 255 86 11 349 344 333 300 273 271 79 75 74 74 56 47 39 31 23 10 352 336 357 69 118 134 103 100 117 99 69 99 109 107 81 64 91 71 31 4 339 342 336 309 322 358 252 238 149 133 159 187 171 45 25 29 98 210 216 201 193 222 248 229 223 224 239 222 187 180 183 151 101 65 62 59 50 39 36 39 39 37 36 34 31 29 28 26
279 262 67 5 347 330 296 281 51 59 87 85 64 63 50 16 21 34 34 36 41 31 36 56 68 102 111 101 104 99 93 102 96 90 93 67 54 72 33 0 335 326 320 289 4 17 284 238 188 149 159 161 99 60 32 11 357 339 276 232 209 224 226 216 210 209 251 263 221 195 180 138 109 81 72 71 61 55 51 48 50 44 39 39 36 34 33 30
288 344 28 355 341 315 294 77 81 46 77 85 58 52 46 358 5 26 30 34 49 51 49 58 57 62 78 82 94 108 101 90 83 85 93 71 46 41 16 351 327 314 321 321 73 16 327 260 164 123 107 102 106 85 26 4 341 349 22 16 325 269 249 233 220 203 209 245 268 201 153 124 112 93 89 84 71 68 60 53 56 53 44 42 39 36 37 34
13 35 11 354 338 295 286 89 93 67 74 87 77 61 54 35 33 35 32 29 37 47 53 58 52 49 60 68 94 109 88 67 76 84 98 92 64 36 9 351 336 318 320 342 87 4 313 257 124 110 100 106 132 143 42 323 264 238 57 26 343 320 309 290 308 289 216 204 225 211 156 127 132 117 104 99 82 74 67 57 56 54 47 44 41 37 36 34
40 38 21 13 354 279 253 86 95 95 90 104 104 85 70 49 37 37 44 41 36 49 63 59 48 55 69 70 86 91 58 56 95 86 89 99 73 37 17 3 356 0 11 14 3 346 330 289 169 159 156 158 173 183 181 188 211 129 67 35 13 12 332 286 304 282 236 203 268 237 174 125 140 142 121 108 89 73 66 60 55 54 48 42 42 42 39 36
2 83 59 34 26 21 54 53 80 105 105 105 96 88 90 73 45 40 52 53 44 48 68 65 51 68 86 86 88 79 42 58 108 116 100 101 95 61 31 17 15 27 36 17 337 315 336 18 331 234 197 187 186 180 168 156 143 109 65 44 28 16 347 299 248 228 219 144 337 269 138 124 140 141 125 116 101 78 66 61 55 53 50 45 43 43 42 40
281 34 68 62 58 66 70 42 38 88 105 107 89 71 86 97 76 45 42 52 52 51 65 68 51 75 92 91 93 83 64 69 98 130 124 108 103 69 31 29 40 36 28 8 338 313 344 55 11 351 3 40 80 75 40 32 137 124 75 54 35 17 356 309 247 229 212 148 90 72 118 138 147 142 127 116 105 86 68 59 54 50 49 48 46 45 45 45
317 20 19 52 77 82 90 62 34 51 62 65 66 48 70 103 102 65 41 48 55 49 60 59 40 67 93 93 93 82 76 83 91 104 108 95 101 94 47 36 47 35 1 351 349 316 211 111 44 35 48 54 66 74 56 37 82 91 75 61 40 26 10 348 14 37 339 206 139 109 131 145 145 142 130 108 98 88 70 57 51 46 47 49 47 47 47 43
17 64 25 329 325 51 66 44 36 70 86 84 91 80 79 87 86 72 65 70 63 29 44 70 59 64 74 72 92 98 98 99 94 92 95 90 100 121 89 52 45 27 359 31 24 327 273 107 91 91 88 77 68 71 65 56 79 80 59 59 46 37 37 46 68 53 5 10 132 133 144 144 142 143 126 98 84 80 70 59 51 44 44 48 47 45 44 40
76 96 68 315 335 63 67 43 47 84 89 87 86 74 80 87 85 72 56 65 68 45 44 92 84 75 79 73 99 112 97 93 107 102 88 86 76 45 101 84 55 33 18 49 53 348 308 89 119 137 119 98 78 78 70 42 79 160 118 91 73 58 72 77 85 80 64 85 117 131 136 134 136 133 114 95 80 75 71 63 54 44 39 43 45 44 41 38
37 59 63 104 95 78 79 83 99 102 95 96 100 83 72 81 89 84 46 33 71 73 71 92 91 84 90 91 96 94 65 47 96 112 112 111 102 45 51 49 43 41 31 47 59 346 306 124 147 181 155 128 107 111 115 30 284 209 168 148 163 155 144 147 136 122 113 113 123 133 134 130 131 126 117 112 103 91 74 56 53 46 35 35 40 41 39 35
20 14 331 27 92 66 69 89 108 126 103 96 107 105 96 87 87 89 66 41 58 82 85 93 95 89 87 86 82 78 66 55 75 91 91 63 59 61 54 32 353 5 52 61 43 327 294 146 161 217 213 150 137 168 172 153 237 224 202 178 176 175 164 151 138 134 140 136 142 157 159 140 137 141 136 132 125 108 68 38 43 45 37 33 33 35 35 33
22 24 308 290 102 55 200 120 150 183 86 71 86 103 104 102 99 93 82 68 65 74 76 89 101 100 92 86 76 62 54 53 63 75 77 66 71 77 71 66 40 12 40 70 35 14 213 166 167 220 237 148 139 185 232 217 226 218 175 160 171 170 148 141 137 123 103 148 161 176 153 127 136 156 159 157 143 109 66 36 31 34 34 34 32 29 28 29
Height
811 810 808 806 805 803 801 800 799 798 797 797 795 795 794 793 792 792 791 790 789 788 788 787 786 785 784 783 783 782 783 783 783 783 780 773 772 774 774 776 777 779 781 784 786 786 787 788 789 789 789 789 788 787 788 787 785 791 797 796 797 800 798 793 789 791 792 791 793 796 797 802 805 801 795 794 797 799 801 801 798 795 794 795 798 804 810 815
811 810 808 806 805 803 802 800 799 798 797 796 795 794 793 792 791 790 790 789 788 787 787 786 785 785 784 783 782 782 782 782 782 779 773 769 770 772 773 774 776 777 780 783 783 783 784 786 787 787 787 789 788 790 792 788 787 795 797 795 798 797 793 788 786 785 785 789 792 794 798 799 801 801 796 801 805 802 806 806 802 803 802 800 802 807 812 815
811 810 808 806 804 802 801 800 799 797 796 795 794 793 792 791 790 789 788 788 787 786 786 785 785 784 784 783 782 781 781 781 779 772 766 766 768 770 771 773 774 777 779 781 782 782 782 783 785 785 786 789 789 792 795 791 788 792 794 798 797 792 788 784 785 785 782 786 791 795 797 798 798 796 796 803 805 802 806 807 805 810 810 806 806 809 813 816
811 810 807 806 804 802 801 799 798 797 795 794 793 792 791 790 789 788 787 786 786 785 785 784 784 784 783 783 782 781 781 780 773 765 765 765 766 768 770 772 774 777 780 781 782 782 782 783 784 784 787 790 788 790 795 792 789 790 792 796 793 788 789 784 783 784 782 785 790 795 798 800 797 794 796 799 804 807 804 799 800 807 808 806 807 808 813 816
811 809 807 805 803 801 800 799 797 796 795 793 792 791 789 788 787 786 785 785 785 784 784 783 783 783 783 782 782 781 782 779 769 762 765 765 765 767 769 771 774 777 780 782 782 782 783 783 783 785 788 790 789 792 793 786 785 791 789 787 786 786 790 785 780 783 784 786 790 796 799 798 795 796 797 795 806 811 798 791 793 798 802 804 805 808 812 815
810 808 806 804 802 801 799 798 796 795 794 792 791 789 788 787 785 785 784 784 783 783 783 782 783 782 782 782 781 782 782 776 765 763 765 764 765 767 769 772 775 778 780 781 781 782 782 782 785 789 789 789 791 792 790 783 783 792 788 782 783 783 787 784 778 781 783 788 794 795 794 793 797 801 796 793 803 802 789 786 790 795 799 802 804 807 810 813
809 807 805 804 802 800 798 797 795 794 793 791 790 788 787 785 784 784 783 782 782 782 782 781 782 782 782 782 781 781 777 770 763 764 764 764 766 767 770 773 775 779 779 779 779 780 781 784 787 787 789 790 791 790 787 784 784 793 790 783 782 780 783 781 777 780 781 787 791 789 790 795 801 801 796 795 798 795 788 787 790 795 799 802 805 807 810 812
808 807 805 803 801 799 797 796 795 793 791 790 788 787 785 784 783 782 781 781 781 781 781 781 781 781 781 782 780 776 771 767 764 765 764 765 767 769 772 775 777 778 778 778 778 778 780 785 785 783 789 789 786 787 787 787 788 792 790 784 781 780 779 776 776 779 780 784 787 788 793 795 795 795 798 798 795 793 791 790 791 796 800 803 806 808 810 813
807 806 804 802 800 798 796 795 793 792 790 788 787 785 784 782 781 780 780 779 779 780 780 780 781 781 782 781 778 774 768 765 765 765 765 767 769 771 774 775 777 777 777 778 777 778 780 783 782 780 786 785 784 786 785 790 792 788 786 783 782 780 777 776 778 779 781 783 785 791 794 792 789 792 799 796 792 793 791 793 795 797 802 804 806 808 810 812
807 805 803 801 799 797 795 794 792 791 789 787 785 783 782 780 779 778 778 778 778 779 779 780 780 780 782 780 777 773 767 765 766 766 767 769 770 773 775 775 777 776 776 777 776 777 778 779 778 777 782 782 783 785 784 789 788 782 783 782 781 780 777 777 780 780 781 784 785 790 795 793 788 794 803 796 790 792 793 797 797 798 803 804 806 808 810 813
806 804 802 800 798 796 794 793 791 789 788 786 784 782 780 778 777 776 776 776 777 778 779 779 780 781 782 780 776 770 766 767 768 768 769 770 771 773 775 776 776 776 776 776 777 777 777 777 775 778 784 782 782 786 783 782 781 781 782 783 780 778 778 778 781 782 781 787 785 786 794 794 792 796 802 795 789 791 795 800 800 801 803 804 806 808 810 813
805 803 801 799 797 795 793 792 790 789 787 784 783 780 778 777 775 775 774 775 776 777 778 779 780 780 781 779 773 768 767 768 768 769 771 772 773 774 775 777 777 777 776 776 777 777 778 778 777 782 784 780 784 789 784 777 779 781 781 787 783 777 783 782 782 782 782 789 783 784 801 804 799 797 793 789 789 791 795 801 802 802 803 804 806 808 811 813
804 802 801 799 796 794 792 790 789 788 785 783 781 779 777 775 774 773 773 774 775 776 778 779 779 780 781 775 767 766 768 768 769 770 771 773 774 775 776 778 778 778 778 777 778 779 780 779 779 780 780 781 784 783 779 775 780 783 780 786 784 782 790 784 781 783 783 788 779 789 819 818 801 792 787 787 789 792 798 801 803 803 803 804 806 808 810 811
803 801 799 797 795 793 791 789 788 786 784 783 780 779 776 774 773 772 772 773 775 776 777 778 779 781 780 771 765 767 768 769 770 770 772 773 774 776 777 778 779 779 779 778 779 781 781 780 779 780 779 780 779 777 780 781 782 784 782 785 783 786 794 783 781 785 787 788 778 795 827 818 799 791 786 787 789 793 801 802 801 802 804 805 806 808 810 810
801 800 798 796 793 791 790 788 787 785 784 782 780 778 776 774 772 771 773 774 775 777 777 779 780 780 776 768 765 767 768 769 770 771 772 772 773 775 776 779 779 780 781 780 781 782 782 782 782 784 782 778 779 784 787 785 783 783 790 796 784 785 794 786 781 783 788 789 779 798 822 808 795 790 785 787 789 792 799 801 801 802 803 805 806 807 809 810
800 798 796 794 792 789 788 787 785 784 782 781 780 778 776 775 773 773 774 775 776 778 778 779 779 779 775 767 766 767 767 768 768 770 772 772 773 774 776 779 779 781 782 781 782 783 783 783 782 782 782 783 786 788 788 789 789 783 791 798 785 783 793 791 786 779 782 788 784 798 810 800 794 790 785 787 789 792 798 800 801 802 801 803 805 805 806 809
798 796 794 793 790 788 786 785 784 782 781 781 780 779 777 777 776 776 777 777 778 778 779 778 777 778 774 766 767 767 764 765 767 770 771 772 773 773 776 777 779 780 781 782 783 783 784 784 785 784 784 785 784 785 794 800 795 787 788 791 782 781 787 791 792 781 779 788 789 794 797 793 793 789 788 788 788 793 798 799 800 801 801 800 802 804 805 808
796 794 792 791 788 787 785 783 782 781 781 780 780 779 778 778 778 778 779 779 779 779 780 778 777 779 774 766 766 764 762 765 767 768 771 773 773 774 775 776 777 780 782 785 785 785 786 785 786 789 789 788 784 787 797 795 786 786 788 788 786 784 785 789 792 784 782 789 790 793 794 791 790 789 790 789 788 794 797 798 799 800 801 801 801 802 803 807
795 792 790 789 787 785 783 782 781 780 780 780 780 780 779 779 779 780 780 779 778 776 775 774 773 775 771 764 761 761 762 765 767 768 770 772 773 774 774 775 777 780 785 788 788 786 786 788 790 792 792 790 788 785 784 780 773 776 780 783 783 784 783 785 787 781 780 790 791 791 793 788 787 790 792 789 788 793 796 796 798 799 800 800 801 801 802 806
793 790 789 786 785 783 782 781 780 779 779 779 780 780 779 778 777 776 776 775 772 768 767 767 766 766 765 761 760 762 764 766 766 767 769 770 771 773 773 775 778 781 784 786 789 785 784 792 794 790 787 784 784 778 775 777 774 772 777 782 781 781 783 783 784 780 776 788 791 786 787 785 783 787 788 788 789 792 795 797 798 799 799 800 801 800 802 804
791 789 787 784 783 782 780 780 778 778 778 778 780 779 775 773 774 774 772 769 764 762 764 763 762 763 763 761 761 761 763 765 765 764 768 769 768 773 776 776 782 786 782 780 784 783 785 792 789 782 779 777 779 777 778 783 782 780 780 783 784 782 783 782 783 780 775 786 790 783 786 786 781 781 783 785 789 791 792 794 797 797 797 799 801 801 801 802
790 788 785 783 781 780 779 778 777 777 777 778 779 776 771 772 775 774 772 769 763 761 764 763 763 764 761 761 762 761 763 765 767 766 766 768 768 773 777 777 781 783 778 779 785 790 793 790 780 775 773 774 779 780 783 786 785 785 781 783 786 780 781 785 783 779 777 784 789 786 788 786 778 776 778 781 785 785 783 786 791 793 795 797 800 802 801 801
789 786 784 782 779 779 778 776 777 777 777 778 777 773 773 775 775 774 774 771 766 762 762 763 764 763 761 761 761 762 763 763 768 768 765 767 768 769 774 778 778 777 779 782 785 792 796 785 772 771 774 779 784 784 786 788 786 785 782 785 786 779 784 790 785 781 780 781 784 787 788 783 776 775 775 775 777 778 777 779 783 786 791 793 794 799 800 800
788 785 783 781 778 778 776 776 777 776 777 777 775 774 775 775 775 774 773 769 767 763 760 761 761 760 760 760 759 762 761 758 762 765 763 765 767 768 771 773 774 778 780 780 780 784 785 774 766 773 779 781 786 788 787 790 790 785 782 783 781 779 783 786 785 783 782 782 781 786 794 786 777 779 778 772 773 776 777 778 782 785 787 789 790 794 795 796
787 784 782 779 778 777 775 776 776 776 777 775 775 776 775 775 774 775 774 770 768 764 760 761 761 760 758 758 760 759 758 759 759 760 760 761 764 768 769 767 771 779 779 778 779 780 777 770 770 779 782 781 786 789 787 788 789 787 784 779 777 780 783 785 786 787 790 792 782 784 804 798 778 779 781 775 777 780 779 781 785 786 787 789 791 792 793 794
785 783 781 779 778 777 776 775 775 777 776 773 775 775 775 776 773 775 775 770 767 764 762 763 762 761 759 758 759 756 762 766 759 757 759 760 759 763 770 769 769 773 773 775 779 777 773 773 775 780 782 783 787 788 784 783 788 789 781 775 779 783 785 786 788 791 794 794 782 781 801 800 784 787 787 781 784 785 784 786 785 786 789 790 791 792 792 792
784 782 780 779 777 777 775 774 775 776 773 773 775 775 775 775 773 775 776 776 772 765 763 763 761 760 759 758 756 760 769 766 761 761 760 762 760 760 770 773 772 772 768 775 785 778 772 778 779 779 782 785 788 788 781 781 789 786 775 774 782 784 787 787 788 792 787 785 786 781 789 796 794 800 793 784 790 791 789 791 787 786 788 789 788 790 791 791
783 780 779 778 777 777 775 775 776 773 773 775 774 775 775 773 774 774 779 786 778 763 761 762 760 759 757 757 756 761 764 759 765 769 759 761 763 762 770 771 770 773 768 776 787 778 772 781 781 779 784 786 785 781 776 781 787 780 774 778 780 781 785 783 786 790 784 792 801 786 785 800 801 799 791 785 794 798 795 794 789 786 786 786 786 786 788 789
782 779 778 777 776 776 776 776 775 773 774 775 774 775 774 772 775 772 778 787 775 761 762 761 760 760 758 758 759 760 760 759 766 767 760 762 762 762 769 766 764 770 771 772 776 773 771 774 773 776 782 781 777 773 772 781 784 775 775 779 778 781 783 782 787 788 789 806 809 787 785 800 802 797 793 793 800 803 798 792 788 785 783 782 783 784 785 786
781 779 778 777 776 776 776 775 775 774 774 774 774 774 772 774 776 778 786 785 770 763 763 760 761 761 759 763 765 762 763 764 763 762 763 764 763 763 765 763 762 768 773 771 770 771 770 768 768 773 777 773 771 771 771 777 777 774 779 782 784 785 783 786 786 785 800 817 805 783 780 791 803 805 799 800 804 800 797 794 790 787 783 781 779 780 782 783
781 779 778 777 777 776 775 773 773 774 773 773 774 771 772 774 772 782 790 777 766 766 764 762 763 761 760 764 767 766 766 768 765 765 768 767 766 767 768 769 769 772 778 777 774 774 774 775 774 773 774 772 773 776 775 774 773 777 782 784 791 795 793 796 795 796 816 820 795 778 777 784 803 810 801 799 798 794 796 796 794 792 787 783 778 776 778 780
781 780 779 777 777 776 775 773 773 773 772 773 772 769 773 777 776 782 780 769 772 772 765 764 763 760 761 762 767 768 768 771 769 766 768 769 771 774 775 775 774 781 787 782 778 778 776 776 775 777 775 773 780 783 780 779 777 781 783 785 799 809 812 816 813 812 818 807 783 774 780 789 801 806 800 798 796 793 793 793 792 792 788 784 779 774 774 777
781 780 778 777 776 775 775 773 772 772 771 771 771 768 771 783 787 782 772 770 776 772 764 765 762 760 762 766 771 769 769 775 772 770 770 770 775 778 778 776 774 781 783 775 777 782 783 781 777 780 780 775 779 782 785 786 782 783 783 786 799 809 821 828 819 814 813 798 780 775 785 797 803 803 798 795 795 791 790 789 789 789 786 783 777 771 771 773
780 779 778 777 775 774 773 771 771 771 770 770 769 768 776 788 788 779 772 772 772 767 766 766 762 762 764 768 773 770 772 779 773 771 773 772 777 782 780 779 778 777 772 769 774 778 788 794 784 780 782 777 776 777 779 779 777 779 773 776 787 790 803 815 809 808 807 794 786 788 793 797 801 804 795 789 790 788 788 787 786 786 783 779 775 770 769 771
779 779 778 776 774 773 771 770 770 769 770 769 766 770 782 789 784 778 778 776 771 768 767 765 762 767 771 772 773 769 772 780 776 772 776 779 784 789 787 786 783 779 775 775 774 771 781 791 783 778 779 777 778 777 773 774 778 774 765 774 783 774 776 787 786 785 786 789 793 793 793 789 791 796 789 786 790 788 789 789 786 788 784 780 780 776 773 773
779 778 777 776 775 773 770 770 769 768 769 766 768 778 786 787 784 781 780 777 774 772 769 766 764 769 775 775 775 773 770 775 777 777 783 786 789 794 793 791 788 784 782 779 774 774 783 790 783 779 780 777 779 777 772 778 780 773 772 779 774 762 766 780 785 777 777 792 793 785 795 799 796 798 791 788 794 793 792 792 790 791 788 785 786 783 780 778
779 778 776 775 774 772 770 768 768 769 767 763 774 787 784 782 784 781 779 776 776 774 770 772 773 772 775 776 777 776 772 775 776 778 787 789 792 799 796 793 790 786 786 784 778 775 781 790 785 780 784 781 776 776 774 773 773 775 780 774 765 768 772 778 791 791 789 800 793 781 795 805 804 807 802 794 798 799 797 796 793 792 791 790 789 787 785 782
778 777 775 774 774 772 769 768 768 766 763 766 781 789 782 781 782 779 779 777 775 774 769 772 777 773 771 775 779 776 773 777 778 779 788 791 796 801 798 796 792 786 786 785 782 775 776 790 790 780 783 782 775 778 780 773 769 774 775 765 768 787 788 783 791 797 798 802 797 789 792 801 803 804 804 804 804 803 800 799 798 796 794 794 791 790 788 785
776 774 775 775 774 773 770 769 767 762 763 772 784 787 782 782 781 778 778 777 776 775 771 771 774 772 771 773 778 778 774 777 780 781 789 794 798 800 798 798 795 789 787 783 782 778 774 787 794 783 779 780 777 779 784 781 773 771 773 768 770 778 781 782 780 780 788 793 798 803 802 806 809 801 803 809 806 804 805 803 801 800 797 796 793 791 789 787
774 773 775 776 774 773 771 767 765 765 771 779 783 784 783 782 781 778 777 777 777 776 774 773 771 773 777 777 777 779 779 780 782 784 791 795 799 801 799 800 798 793 790 783 782 781 775 780 791 787 779 781 787 790 792 791 782 776 777 775 776 774 773 778 773 767 775 780 790 806 810 811 811 803 803 809 806 806 807 804 804 802 799 798 796 794 792 789
773 774 776 775 774 773 769 769 771 772 777 782 783 784 786 784 782 779 776 776 777 776 774 774 773 773 778 779 780 781 782 784 785 788 793 797 800 802 800 801 801 796 791 786 783 785 782 777 782 787 785 790 799 798 795 795 790 784 780 778 780 778 777 788 788 775 772 774 776 788 805 815 812 804 803 806 806 806 805 804 805 803 801 801 798 796 795 791
774 777 778 775 775 771 768 774 778 776 779 785 787 786 787 786 783 781 778 776 776 776 775 776 779 780 780 781 782 782 784 789 790 791 796 800 801 804 802 799 799 795 791 790 788 788 786 780 782 790 792 795 801 798 794 796 792 787 785 783 783 780 779 789 794 782 775 778 771 774 803 822 813 804 804 805 805 805 805 805 804 804 803 802 801 799 797 795
778 780 778 776 775 771 771 780 783 782 786 789 788 787 787 786 784 782 781 779 779 779 779 781 783 784 786 786 784 785 788 795 798 796 798 802 804 806 804 798 796 793 790 791 790 789 787 785 791 801 801 797 797 795 793 793 791 789 790 788 786 786 785 786 787 782 776 780 778 782 811 829 815 805 804 802 804 805 805 806 806 806 805 803 803 802 800 799
780 781 777 775 775 771 774 784 787 788 791 789 788 790 789 788 788 786 785 784 784 782 784 787 786 785 788 786 786 788 791 796 803 800 798 803 805 805 803 798 796 794 793 796 795 792 793 792 795 803 808 808 805 802 799 795 792 793 794 794 791 790 790 788 786 784 783 786 784 784 809 826 816 807 805 803 806 808 807 807 807 807 808 806 804 803 802 802
781 781 779 777 775 773 777 782 783 788 791 790 792 792 790 792 792 789 789 789 787 785 787 791 788 785 787 786 788 791 788 792 802 803 800 802 805 805 803 801 798 796 798 801 797 793 796 798 799 802 805 809 812 810 806 799 794 796 798 798 796 793 793 792 788 788 792 795 791 791 807 821 814 808 808 806 808 812 811 809 808 808 809 808 806 805 804 804
782 784 784 781 778 778 783 783 781 786 789 790 795 794 792 796 795 790 790 791 790 788 789 791 789 788 789 789 792 795 792 791 797 801 802 803 805 806 804 801 801 801 803 803 798 794 797 801 804 805 803 806 812 812 806 798 797 802 804 802 800 797 794 791 789 792 792 793 802 808 811 816 815 812 812 810 810 814 814 812 812 811 810 809 808 808 806 805
785 790 790 789 787 785 786 786 785 788 789 791 798 799 796 796 795 793 793 793 793 792 792 793 791 791 794 794 796 800 800 798 799 803 805 805 805 806 804 801 801 804 804 801 798 796 800 804 807 808 808 808 810 810 806 802 804 807 807 806 804 801 797 795 796 800 795 795 811 818 809 810 815 813 814 816 814 816 817 816 816 814 812 811 810 808 808 807
789 794 793 793 795 793 792 793 791 790 791 793 798 800 798 798 799 799 797 794 794 793 794 799 798 795 797 797 798 803 806 805 808 810 808 808 808 806 804 803 802 803 801 800 800 799 801 807 809 809 812 811 809 809 808 807 809 810 809 809 808 805 803 804 804 804 801 802 812 817 811 810 813 812 815 818 816 817 818 817 817 816 814 813 812 811 810 809
790 793 793 793 796 796 797 797 793 793 795 797 800 801 800 800 803 803 799 798 799 796 795 803 804 800 799 798 799 806 809 808 812 815 812 811 812 808 808 808 804 802 801 802 804 803 804 810 812 810 814 816 814 813 812 811 812 811 810 811 811 808 807 807 805 803 805 807 808 811 813 813 811 813 817 817 816 817 817 817 818 819 817 815 814 814 814 813
793 795 795 793 795 797 798 797 795 796 798 800 803 804 802 802 804 804 801 801 805 803 799 803 805 801 800 800 801 807 810 806 810 814 813 813 814 811 812 813 809 806 805 806 807 806 808 815 815 810 814 819 818 815 814 814 814 813 813 812 811 811 810 809 807 804 807 810 810 811 818 821 816 814 816 818 818 817 818 820 821 822 821 819 817 817 817 817
798 799 797 795 799 802 800 798 797 797 800 801 804 805 805 805 806 806 806 804 804 805 804 804 806 804 803 806 807 810 810 807 807 810 810 811 812 811 812 813 811 810 810 810 811 808 808 815 817 813 814 817 818 817 816 814 814 815 815 814 812 812 811 809 808 807 808 811 814 815 818 821 818 814 816 819 818 820 823 823 823 823 824 823 822 821 820 820
800 801 798 796 801 803 801 800 798 799 803 806 806 807 807 808 806 807 810 809 804 804 805 804 804 806 809 813 815 813 810 809 809 809 809 809 809 809 810 811 811 812 813 813 813 811 810 813 815 814 814 815 817 818 816 815 818 816 812 811 811 811 811 811 812 812 810 809 812 812 811 814 816 815 818 819 819 822 827 826 825 825 825 825 825 824 823 822